This demonstration page uses our WeatherBlox Daily Observations layout. Learn more.

Left ArrowRight Arrow

34.74481, -87.66753

Hourly Observations for December 13, 2019

Temp ( °F °C ) Dew Point ( °F °C ) Humidity (%) Winds ( mph kmh ) Pressure ( in mb ) Visibility ( mi km ) Precip ( " mm )
12:53 am 00:53 Cloudy 48 8.9 33 0.6 56 56 SSE 9 15 30.15 1021 10 16 0.00 0.00
1:40 am 01:40 Cloudy 47 8.3 33 0.6 59 59 SE 5 7 30.15 1021 10 16 0.00 0.00
1:53 am 01:53 Cloudy 47 8.3 33 0.6 59 59 SE 6 9 30.14 1021 10 16 0.00 0.00
2:53 am 02:53 Cloudy with Haze 46 7.8 33 0.6 61 61 SE 6 9 30.12 1020 5 8 0.00 0.00
3:28 am 03:28 Cloudy with Light Rain 46 7.8 33 0.6 61 61 ESE 6 9 30.11 1020 5 8 0.01 0.25
3:35 am 03:35 Cloudy with Haze 45 7.2 33 0.6 63 63 ESE 6 9 30.11 1020 5 8 0.01 0.25
3:53 am 03:53 Cloudy with Light Rain 45 7.2 33 0.6 63 63 E 6 9 30.09 1019 6 10 0.01 0.25
4:53 am 04:53 Cloudy 45 7.2 35 1.7 68 68 E 5 7 30.07 1018 9 14 0.00 0.00
5:53 am 05:53 Cloudy with Haze 45 7.2 33 0.6 63 63 ESE 6 9 30.06 1018 6 10 0.00 0.00
6:31 am 06:31 Cloudy with Haze 45 7.2 33 0.6 63 63 ESE 6 9 30.06 1018 3 4 0.00 0.00
6:43 am 06:43 Cloudy with Haze 45 7.2 33 0.6 63 63 ESE 6 9 30.06 1018 2 3 0.00 0.00
6:53 am 06:53 Cloudy with Haze 45 7.2 33 0.6 63 63 E 5 7 30.05 1018 2 3 0.00 0.00
7:10 am 07:10 Cloudy with Haze 45 7.2 33 0.6 63 63 E 6 9 30.06 1018 2 2 0.00 0.00
7:53 am 07:53 Cloudy with Haze 45 7.2 34 1.1 66 66 ESE 6 9 30.04 1017 1 2 0.00 0.00
8:23 am 08:23 Cloudy with Haze 45 7.2 34 1.1 66 66 ESE 7 11 30.05 1018 2 3 0.00 0.00
8:50 am 08:50 Cloudy with Haze 45 7 34 1 66 66 ESE 6 9 30.04 1017 2 2 0.00 0.00
8:53 am 08:53 Cloudy with Haze 45 7.2 34 1.1 66 66 ESE 6 9 30.04 1017 2 2 0.00 0.00
9:11 am 09:11 Cloudy with Haze 45 7.2 32 0 61 61 SE 7 11 30.04 1017 2 3 0.00 0.00
9:29 am 09:29 Cloudy with Haze 45 7.2 34 1.1 66 66 ESE 7 11 30.03 1017 3 5 0.00 0.00
9:53 am 09:53 Cloudy with Haze 45 7.2 34 1.1 66 66 ESE 5 7 30.02 1017 3 4 0.01 0.25
10:04 am 10:04 Cloudy with Haze 45 7.2 33 0.6 63 63 ESE 7 11 30.02 1017 3 5 0.00 0.00
10:16 am 10:16 Cloudy with Haze 45 7.2 34 1.1 66 66 SE 8 13 30.02 1017 3 4 0.00 0.00
10:53 am 10:53 Cloudy with Haze 46 7.8 34 1.1 63 63 SE 3 6 29.99 1016 3 5 0.00 0.00
11:36 am 11:36 Cloudy with Haze 46 7.8 34 1.1 63 63 ESE 7 11 29.96 1015 4 6 0.00 0.00
11:53 am 11:53 Cloudy with Haze 46 7.8 34 1.1 63 63 E 5 7 29.95 1014 4 6 0.00 0.00
12:53 pm 12:53 Cloudy with Haze 46 7.8 35 1.7 66 66 ESE 3 6 29.91 1013 2 3 0.00 0.00
1:00 pm 13:00 Cloudy with Light Rain 46 7.8 34 1.1 63 63 E 5 7 29.91 1013 2 2 0.01 0.25
1:34 pm 13:34 Cloudy with Haze 47 8.3 35 1.7 63 63 SE 3 6 29.90 1013 2 3 0.01 0.25
1:53 pm 13:53 Cloudy with Haze 47 8.3 35 1.7 63 63 ESE 5 7 29.87 1012 3 4 0.01 0.25
2:00 pm 14:00 Cloudy with Haze 47 8.3 35 1.7 63 63 E 3 6 29.89 1012 3 5 0.00 0.00
2:50 pm 14:50 Cloudy with Haze 46 8 36 2 66 66 SSE 6 9 29.87 1012 5 8 0.00 0.00
2:53 pm 14:53 Cloudy with Haze 47 8.3 36 2.2 66 66 SE 6 9 29.86 1011 5 8 0.00 0.00
3:53 pm 15:53 Cloudy with Haze 48 8.9 36 2.2 63 63 Calm 29.85 1011 3 4 0.00 0.00
4:13 pm 16:13 Cloudy with Mist and Fog 48 8.9 46 7.8 93 93 Calm 29.86 1011 2 2 0.00 0.00
4:53 pm 16:53 Cloudy with Mist and Fog 47 8.3 45 7.2 93 93 E 5 7 29.83 1010 2 3 0.00 0.00
5:02 pm 17:02 Cloudy with Mist and Fog 47 8.3 45 7.2 93 93 E 3 6 29.84 1011 2 3 0.00 0.00
5:53 pm 17:53 Cloudy with Mist and Fog 47 8.3 46 7.8 97 97 Calm 29.82 1010 3 4 0.00 0.00
6:25 pm 18:25 Cloudy with Mist and Fog 48 8.9 45 7.2 89 89 Calm 29.84 1010 2 3 0.00 0.00
6:43 pm 18:43 Cloudy with Mist and Fog 48 8.9 45 7.2 89 89 Calm 29.84 1010 2 3 0.00 0.00
6:50 pm 18:50 Cloudy with Mist and Fog 48 9 45 7 87 87 Calm 29.83 1010 3 4 0.00 0.00
6:53 pm 18:53 Cloudy with Mist and Fog 48 8.9 46 7.8 93 93 Calm 29.82 1010 3 4 0.00 0.00
7:53 pm 19:53 Cloudy with Mist and Fog 48 8.9 45 7.2 89 89 NW 3 6 29.81 1010 4 6 0.01 0.25
8:13 pm 20:13 Cloudy with Mist and Fog 48 8.9 45 7.2 89 89 WNW 5 7 29.82 1010 2 3 0.00 0.00
8:24 pm 20:24 Cloudy with Mist and Fog 47 8.3 46 7.8 97 97 WNW 6 9 29.82 1010 2 3 0.00 0.00
8:37 pm 20:37 Cloudy with Mist and Fog 48 8.9 46 7.8 93 93 NW 5 7 29.82 1010 2 3 0.00 0.00
8:48 pm 20:48 Cloudy with Mist and Fog 48 9 46 8 94 94 WNW 5 7 29.82 1010 4 6 0.00 0.00
8:53 pm 20:53 Cloudy with Mist and Fog 48 8.9 46 7.8 93 93 WNW 3 6 29.81 1010 4 6 0.00 0.00
9:53 pm 21:53 Cloudy with Mist and Fog 48 8.9 45 7.2 89 89 WNW 6 9 29.81 1009 5 8 0.00 0.00
10:17 pm 22:17 Cloudy 48 8.9 45 7.2 89 89 WNW 5 7 29.81 1009 9 14 0.00 0.00
10:53 pm 22:53 Cloudy 48 8.9 45 7.2 89 89 WNW 9 15 29.80 1009 10 16 0.00 0.00

Powered by AerisWeather